Sheringham Point, British Columbia

5:09 AM PDT on September 26, 2017 (GMT -0700)
Sheringham Point

Weather History for CWSP - November, 2012

Change the Weather History Date:

Wednesday, November 14, 2012

  Actual Average Record
Temperature  
Mean Temperature 46 °F -  
Max Temperature 51 °F - - ()
Min Temperature 42 °F - - ()
Degree Days  
Heating Degree Days 18    
Moisture  
Dew Point 43 °F    
Average Humidity 89    
Maximum Humidity 95    
Minimum Humidity 72    
Precipitation  
Precipitation 0.00 in - - ()
Sea Level Pressure  
Sea Level Pressure 30.29 in    
Wind  
Wind Speed 3 mph ()    
Max Wind Speed 8 mph    
Max Gust Speed -    
T = Trace of Precipitation, MM = Missing Value Source: Averaged Metar Reports

Daily Weather History Graph

Daily Weather History Graph

Search for Another Location

Airport or City:

Trip Planner

Search our weather history database for the weather conditions in past years. The results will help you decide how hot, cold, wet, or windy it might be!

Date:

Astronomy

Nov. 14, 2012 Rise Set
Actual Time 7:22 AM PST 4:37 PM PST
Civil Twilight 6:48 AM PST 5:11 PM PST
Nautical Twilight 6:10 AM PST 5:49 PM PST
Astronomical Twilight 5:33 AM PST 6:26 PM PST
Moon 8:23 AM PST (11/14) 5:26 PM PST (11/14)
Length of Visible Light 10h 22m
Length of Day
9h 14m
New Moon, 1% of the Moon is Illuminated
Nov 14
New Moon
Nov 20
First Quarter
Nov 28
Full
Dec 6
Last Quarter
Dec 13
New

Hourly Weather History & Observations

Time (PST) Temp. Windchill Dew Point Humidity Pressure Visibility Wind Dir Wind Speed Gust Speed Precip Events Conditions
12:00 AM 45.3 °F 44.0 °F 44.1 °F 95% 30.19 in - WNW 3.5 mph - N/A   Unknown
1:00 AM 45.3 °F - 44.1 °F 95% 30.21 in - WNW 2.3 mph - N/A   Unknown
2:00 AM 44.6 °F - 43.3 °F 95% 30.21 in - WNW 2.3 mph - N/A   Unknown
3:00 AM 44.8 °F 41.6 °F 43.3 °F 95% 30.22 in - WNW 5.8 mph - N/A   Unknown
4:00 AM 44 °F - 43 °F 95% 30.22 in - NW 5.8 mph - -  
4:00 AM 44.4 °F 41.2 °F 43.0 °F 95% 30.22 in - NW 5.8 mph - N/A   Unknown
5:00 AM 43.7 °F - 42.3 °F 95% 30.24 in - West 1.2 mph - N/A   Unknown
6:00 AM 45.0 °F 42.6 °F 43.7 °F 95% 30.25 in - WNW 4.6 mph - N/A   Unknown
7:00 AM 44.4 °F - 43.2 °F 95% 30.27 in - Calm Calm - N/A   Unknown
8:00 AM 44.4 °F - 43.2 °F 95% 30.29 in - East 1.2 mph - N/A   Unknown
9:00 AM 47.3 °F - 44.4 °F 90% 30.30 in - Calm Calm - N/A   Unknown
10:00 AM 47 °F - 41 °F 72% 30.32 in - Calm Calm - -  
10:00 AM 46.6 °F - 40.8 °F 80% 30.32 in - Calm Calm - N/A   Unknown
11:00 AM 47.1 °F - 42.8 °F 85% 30.33 in - Calm Calm - N/A   Unknown
12:00 PM 47.1 °F - 43.2 °F 86% 30.32 in - West 8.1 mph - N/A   Unknown
1:00 PM 47.1 °F - 42.8 °F 85% 30.32 in - West 6.9 mph - N/A   Unknown
2:00 PM 47.8 °F - 43.7 °F 86% 30.32 in - West 6.9 mph - N/A   Unknown
3:00 PM 47.8 °F - 44.2 °F 87% 30.32 in - West 8.1 mph - N/A   Unknown
4:00 PM 47 °F - 44 °F 86% 30.33 in - WSW 2.3 mph - -  
4:00 PM 47.3 °F - 44.1 °F 88% 30.33 in - WSW 2.3 mph - N/A   Unknown
5:00 PM 47.1 °F - 44.4 °F 90% 30.33 in - Calm Calm - N/A   Unknown
6:00 PM 46.2 °F - 43.9 °F 92% 30.34 in - Calm Calm - N/A   Unknown
7:00 PM 45.7 °F - 43.3 °F 92% 30.33 in - East 1.2 mph - N/A   Unknown
8:00 PM 44.8 °F - 41.9 °F 90% 30.33 in - East 1.2 mph - N/A   Unknown
9:00 PM 42.8 °F - 41.0 °F 93% 30.33 in - ENE 2.3 mph - N/A   Unknown
10:00 PM 46 °F - 41 °F 77% 30.32 in - ENE 4.6 mph - -  
10:00 PM 45.5 °F 43.2 °F 41.0 °F 84% 30.32 in - ENE 4.6 mph - N/A   Unknown
11:00 PM 44.6 °F - 39.4 °F 82% 30.32 in - Calm Calm - N/A   Unknown